{"data":{"norad_id":65350,"intl_designator":"2025-189AD","name":"STARLINK-34892","alt_names":[],"object_type":"PAYLOAD","status":"ACTIVE","operator":null,"country":"US","launch_date":"2025-08-27","launch_site_code":"AFETR","launch_vehicle":null,"mission":null,"orbit_class":"UNKNOWN","rcs_meters":null,"size_class":null,"mass_kg":null,"dimensions":null,"purposes":["comms"],"wikipedia_slug":null,"has_3d_model":false,"image_url":null,"decayed_at":null,"tle_current":{"epoch":"2026-09-20T22:21:21.324384Z","epoch_age_seconds":80366,"freshness":"FRESH","line1":"1 65350U 25189AD  26263.93149681  .00005003  00000+0  17273-3 0  9994","line2":"2 65350  53.1609  18.1262 0000794  73.6325 286.4764 15.31725591 60979","mean_motion":15.31725591,"eccentricity":7.94e-5,"inclination_deg":53.1609,"raan_deg":18.1262,"arg_perigee_deg":73.6325,"mean_anomaly_deg":286.4764,"bstar":0.00017273,"rev_number":6097,"period_min":94.01161725449,"perigee_km":470.11991607196,"apogee_km":471.20750562484,"semimajor_km":6848.8007108484,"source":"CELESTRAK","updated_at":"2026-09-21T09:00:35.574707Z"}}}